Showing default

COSMOS 1999, 19790

Orbit data source: Space-Track

COSMOS 1999, 19790 is a payload satellite owned by UNKS (CIS) in LEO that was launched on Fri, 10 Feb 1989 UTC via a TSIKLON-3 launch vehicle from the Plesetsk Missile And Space Complex (PKMTR). Payload-class satellites include a variety of spacecraft equipped with specific instruments for various scientific and technological missions. These include communications satellites like Starlink; space stations such as the ISS; scientific satellites like the Hubble; Earth observation satellites from companies like Planet Labs, Umbra, and HawkEye 360; GPS; miniature CubeSats for education and research; and military/defense satellites.

Loading next visibility...
Identifier
19790, 1989-009F
Orbit
LEO
Country
Flag of CISCIS
Related business
Manufacturer
NPO PM
Mission
Defense Communications
Bus & Motor
STRELA-3, Unknown motor
Mass
225 kg wet, 225 kg dry
Launch date (UTC)
1989-02-10 (37 years ago)
Launch vehicle
TSIKLON-3
Launch site
Plesetsk Missile And Space Complex (PKMTR)
Object type
Payload
Rocket body
Debris
Shape & HBR
Cyl, 0.8 m
Radar Cross Section
1.257 m², Medium (>0.1 m² and < 1m²)

Expand to show TLE details & history
Last TLE update: 16 hours ago

TLE from 16 hours ago
0 COSMOS 1999
1 19790U 89009F   25306.49587730  .00000046  00000-0  18931-3 0  9996
2 19790  82.6140 111.5384 0019771  22.6827  31.8818 12.65742814696576
Epoch: 2025-11-02T11:54Z
TLE epoch observation values (Epoch: 2025-11-02T11:54:03.798Z)
Latitude
54.11109°
Longitude
-98.71971°
Altitude
1,395.119 km
Speed
7.173 km/s
True Right ascension
08h 07m 13s
True Declination
53° 57' 40"
Sunlit
Object was in daylight at epoch
Visualization orbit readout
Latitude
Unknown
Longitude
Unknown
Altitude
Unknown
Speed
Unknown
Apparent Right ascension
Unknown
Apparent Declination
Unknown
Sunlit
N/A
Visualization observer readout
Local Sidereal Time
23:16:35
Azimuth
Unknown
Elevation
Unknown
Doppler factor
Unknown
Orbital elements
Apogee altitude
1,412.016 km
Perigee altitude
1,381.273 km
Semi-major axis
7,774.782 km
Eccentricity
0.00198
Inclination
82.614°
RAAN
111.5384°
Arg. of periapsis
22.6827°
True anomaly
32.00171°
Mean anomaly
31.8818°
Eccentric anomaly
31.94173°
Mean motion
3.166 °/min
Orbital period
113.71 mins
BSTAR
0.00018931
Loading maneuver chart data...
Computing Atmospheric mass density...
Loading historical data...
Loading historical data...
Loading historical data...
Loading historical data...
Loading historical data...
Loading historical data...
Loading historical data...

Documentation

Showing up to 5 results
|